Terminal Aerodrome Forecast
Issued by NWS

Home | Current Version | Previous Version | Text Only | Print | Product List | Glossary On
Versions: 1 2 3 4 5 6 7 8 9 10 11 12 13 14 15 16 17 18 19 20 21 22 23
000
FTUS41 KPBZ 240500
TAFZZV
TAF
KZZV 240522Z 2406/2506 27005KT P6SM BKN200
      TEMPO 2408/2412 3SM BR=

USA.gov is the U.S. government's official web portal to all federal, state and local government web resources and services.